Louisville Bowman, KY

5:32 PM EDT on April 28, 2017 (GMT -0400)
Bowman

Weather History for KLOU - March, 2014

Change the Weather History Date:

Monday, March 17, 2014

  Actual Average Record
Temperature  
Mean Temperature 37 °F 47 °F  
Max Temperature 46 °F 57 °F 79 °F (2012)
Min Temperature 28 °F 38 °F 22 °F (1967)
Degree Days  
Heating Degree Days 28 18  
Month to date heating degree days 406 346  
Since 1 July heating degree days 4215 3707  
Cooling Degree Days 0 0  
Month to date cooling degree days 0 0  
Year to date cooling degree days 0 0  
Moisture  
Dew Point 20 °F    
Average Humidity 57    
Maximum Humidity 64    
Minimum Humidity 49    
Precipitation  
Precipitation 0.00 in 0.15 in 1.20 in (1951)
Month to date precipitation 1.02 2.12  
Year to date precipitation 6.79 8.68  
Sea Level Pressure  
Sea Level Pressure 29.91 in    
Wind  
Wind Speed 5 mph (NNE)    
Max Wind Speed 13 mph    
Max Gust Speed 20 mph    
Visibility 10 miles    
Events      
T = Trace of Precipitation, MM = Missing Value Source: NWS Daily Summary

Daily Weather History Graph

Daily Weather History Graph

Search for Another Location

Airport or City:

Trip Planner

Search our weather history database for the weather conditions in past years. The results will help you decide how hot, cold, wet, or windy it might be!

Date:

Astronomy

Mar. 17, 2014 Rise Set
Actual Time 7:50 AM EDT 7:51 PM EDT
Civil Twilight 7:24 AM EDT 8:18 PM EDT
Nautical Twilight 6:53 AM EDT 8:48 PM EDT
Astronomical Twilight 6:22 AM EDT 9:19 PM EDT
Moon 9:06 PM EDT (3/17) 8:07 AM EDT (3/17)
Length of Visible Light 12h 53m
Length of Day
12h 00m
Full, 99% of the Moon is Illuminated
Mar 17
Full
Mar 23
Last Quarter
Mar 30
New
Apr 7
First Quarter
Apr 15
Full

Hourly Weather History & Observations

Time (EDT) Temp. Windchill Dew Point Humidity Pressure Visibility Wind Dir Wind Speed Gust Speed Precip Events Conditions
12:53 AM 30.0 °F 21.1 °F 14.0 °F 51% 29.95 in 10.0 mi NNE 10.4 mph - N/A   Overcast
1:53 AM 30.0 °F 22.4 °F 14.0 °F 51% 29.96 in 10.0 mi NNE 8.1 mph 16.1 mph N/A   Overcast
2:53 AM 30.0 °F 20.5 °F 14.0 °F 51% 29.94 in 10.0 mi NE 11.5 mph - N/A   Overcast
3:53 AM 28.9 °F 22.8 °F 15.1 °F 56% 29.93 in 10.0 mi NNE 5.8 mph - N/A   Overcast
4:53 AM 28.0 °F 20.0 °F 16.0 °F 61% 29.93 in 10.0 mi NNE 8.1 mph - N/A   Overcast
5:53 AM 28.0 °F 20.8 °F 16.0 °F 61% 29.92 in 10.0 mi North 6.9 mph - N/A   Overcast
6:53 AM 28.0 °F 20.8 °F 17.1 °F 63% 29.91 in 10.0 mi NNE 6.9 mph - N/A   Overcast
7:19 AM 28.4 °F 19.7 °F 15.8 °F 59% 29.89 in 10.0 mi NNE 9.2 mph - N/A   Overcast
7:30 AM 28.4 °F 19.7 °F 15.8 °F 59% 29.89 in 10.0 mi NNE 9.2 mph - N/A   Overcast
7:53 AM 28.0 °F 20.8 °F 16.0 °F 61% 29.92 in 10.0 mi NNE 6.9 mph - N/A   Overcast
8:01 AM 28.4 °F 20.4 °F 15.8 °F 59% 29.91 in 10.0 mi NNE 8.1 mph - N/A   Overcast
8:53 AM 28.0 °F 21.7 °F 17.1 °F 63% 29.94 in 10.0 mi NNE 5.8 mph - N/A   Overcast
9:32 AM 28.4 °F 22.2 °F 17.6 °F 64% 29.95 in 10.0 mi ENE 5.8 mph - N/A   Overcast
9:53 AM 28.9 °F 22.8 °F 17.1 °F 61% 29.96 in 10.0 mi NE 5.8 mph - N/A   Overcast
10:53 AM 28.9 °F 22.8 °F 18.0 °F 64% 29.95 in 10.0 mi NE 5.8 mph - N/A   Overcast
11:12 AM 30.2 °F 24.3 °F 17.6 °F 60% 29.92 in 10.0 mi NE 5.8 mph - N/A   Overcast
11:53 AM 30.9 °F 26.2 °F 19.0 °F 61% 29.93 in 10.0 mi NE 4.6 mph - N/A   Overcast
12:53 PM 33.1 °F 28.7 °F 21.0 °F 61% 29.91 in 10.0 mi North 4.6 mph - N/A   Overcast
1:53 PM 36.0 °F 31.1 °F 23.0 °F 59% 29.90 in 10.0 mi NE 5.8 mph - N/A   Overcast
2:53 PM 37.0 °F 31.0 °F 23.0 °F 57% 29.89 in 10.0 mi NNW 8.1 mph - N/A   Overcast
3:53 PM 39.9 °F 36.7 °F 25.0 °F 55% 29.87 in 10.0 mi Variable 4.6 mph - N/A   Overcast
4:53 PM 42.1 °F 40.2 °F 26.1 °F 53% 29.85 in 10.0 mi WNW 3.5 mph - N/A   Clear
5:53 PM 45.0 °F 43.5 °F 27.0 °F 49% 29.83 in 10.0 mi East 3.5 mph - N/A   Clear
6:53 PM 44.1 °F 41.5 °F 26.1 °F 49% 29.85 in 10.0 mi WNW 4.6 mph - N/A   Clear
7:53 PM 43.0 °F 40.3 °F 26.1 °F 51% 29.86 in 10.0 mi North 4.6 mph - N/A   Clear
8:53 PM 42.1 °F 40.2 °F 28.9 °F 60% 29.86 in 10.0 mi East 3.5 mph - N/A   Clear
9:53 PM 41.0 °F 36.4 °F 27.0 °F 57% 29.88 in 10.0 mi East 6.9 mph - N/A   Clear
10:53 PM 39.0 °F - 27.0 °F 62% 29.91 in 10.0 mi Calm Calm - N/A   Clear
11:53 PM 37.0 °F - 26.1 °F 65% 29.91 in 10.0 mi Calm Calm - N/A   Clear